Time,TemperatureF,DewpointF,PressureIn,WindDirection,WindDirectionDegrees,WindSpeedMPH,WindSpeedGustMPH,Humidity,HourlyPrecipIn,Conditions,Clouds,dailyrainin,SoftwareType,DateUTC
2013-07-22 05:02:00,73.0,67.0,29.89,SSE,157,0.0,0.0,82,0.00,,,0.00,,2013-07-22 09:02:00,
2013-07-22 05:11:00,73.0,67.0,29.88,North,-999,-999.0,-999.0,82,0.00,,,0.00,,2013-07-22 09:11:00,
2013-07-22 05:22:00,73.0,67.0,29.88,North,-999,-999.0,-999.0,82,0.00,,,0.00,,2013-07-22 09:22:00,
2013-07-22 05:33:00,73.0,67.0,29.88,North,-999,-999.0,-999.0,82,0.00,,,0.00,,2013-07-22 09:33:00,
2013-07-22 05:42:00,73.0,67.0,29.88,North,-999,-999.0,-999.0,82,0.00,,,0.00,,2013-07-22 09:42:00,
2013-07-22 05:52:00,73.0,67.0,29.88,North,-999,-999.0,-999.0,82,0.00,,,0.00,,2013-07-22 09:52:00,
2013-07-22 06:53:00,68.0,64.0,29.91,SSE,157,0.0,0.0,88,0.00,,,0.00,,2013-07-22 10:53:00,
2013-07-22 07:01:00,68.0,64.0,29.91,North,-999,-999.0,-999.0,88,0.96,,,0.96,,2013-07-22 11:01:00,
2013-07-22 07:02:00,68.0,64.0,29.91,SSE,157,0.0,0.0,88,0.96,,,0.96,,2013-07-22 11:02:00,
2013-07-22 07:11:00,68.0,64.0,29.91,SSE,157,0.0,0.0,88,0.96,,,0.96,,2013-07-22 11:11:00,
2013-07-22 07:23:00,68.0,64.0,29.91,North,-999,-999.0,-999.0,88,0.96,,,0.96,,2013-07-22 11:23:00,
2013-07-22 07:32:00,68.0,64.0,29.91,North,-999,-999.0,-999.0,88,0.96,,,0.96,,2013-07-22 11:32:00,
2013-07-22 07:43:00,68.0,64.0,29.91,North,-999,-999.0,-999.0,88,0.96,,,0.96,,2013-07-22 11:43:00,
2013-07-22 07:52:00,68.0,64.0,29.91,North,-999,-999.0,-999.0,88,0.96,,,0.96,,2013-07-22 11:52:00,
2013-07-22 09:01:00,67.0,64.0,29.91,ESE,112,0.0,0.0,90,0.02,,,0.98,,2013-07-22 13:01:00,
2013-07-22 09:11:00,67.0,64.0,29.91,ESE,112,0.0,0.0,90,0.02,,,0.98,,2013-07-22 13:11:00,
2013-07-22 09:43:00,67.0,64.0,29.90,ESE,112,0.0,0.0,91,0.02,,,0.98,,2013-07-22 13:43:00,
2013-07-22 09:53:00,67.0,64.0,29.90,ESE,112,0.0,0.0,91,0.02,,,0.98,,2013-07-22 13:53:00,
2013-07-22 10:11:00,67.0,64.0,29.90,ESE,112,0.0,0.0,91,0.00,,,0.98,,2013-07-22 14:11:00,
2013-07-22 10:22:00,67.0,64.0,29.90,ESE,112,0.0,0.0,91,0.00,,,0.98,,2013-07-22 14:22:00,
2013-07-22 10:32:00,68.0,65.0,29.90,SE,135,0.0,0.0,91,0.00,,,0.98,,2013-07-22 14:32:00,
2013-07-22 10:53:00,68.0,65.0,29.90,North,-999,-999.0,-999.0,91,0.00,,,0.98,,2013-07-22 14:53:00,
2013-07-22 11:02:00,68.0,65.0,29.90,North,-999,-999.0,-999.0,91,0.00,,,0.98,,2013-07-22 15:02:00,
2013-07-22 11:52:00,67.0,64.0,29.88,SSE,157,0.0,0.0,91,0.00,,,0.98,,2013-07-22 15:52:00,
2013-07-22 12:01:00,67.0,64.0,29.88,SSE,157,0.0,0.0,91,0.00,,,0.98,,2013-07-22 16:01:00,
2013-07-22 12:11:00,67.0,64.0,29.88,SSE,157,0.0,0.0,91,0.00,,,0.98,,2013-07-22 16:11:00,
2013-07-22 12:22:00,66.0,63.0,29.88,SSE,157,0.0,0.0,91,0.00,,,0.98,,2013-07-22 16:22:00,
2013-07-22 12:32:00,66.0,63.0,29.88,SSE,157,0.0,0.0,91,0.00,,,0.98,,2013-07-22 16:32:00,
2013-07-22 16:43:00,73.0,67.0,29.84,NW,315,0.0,0.0,81,0.00,,,0.98,,2013-07-22 20:43:00,
2013-07-22 17:12:00,74.0,68.0,29.84,West,270,0.0,0.0,81,0.00,,,0.98,,2013-07-22 21:12:00,
2013-07-22 17:22:00,75.0,69.0,29.84,West,270,0.0,0.0,81,0.00,,,0.98,,2013-07-22 21:22:00,
2013-07-22 17:32:00,76.0,70.0,29.83,SE,135,0.0,0.0,81,0.00,,,0.98,,2013-07-22 21:32:00,
2013-07-22 17:43:00,76.0,70.0,29.83,SE,135,0.0,0.0,81,0.00,,,0.98,,2013-07-22 21:43:00,
2013-07-22 18:01:00,76.0,70.0,29.82,SE,135,0.0,0.0,81,0.00,,,0.98,,2013-07-22 22:01:00,
2013-07-22 18:22:00,76.0,70.0,29.83,SE,135,0.0,0.0,81,0.00,,,0.98,,2013-07-22 22:22:00,
2013-07-22 18:32:00,76.0,70.0,29.83,SE,135,0.0,0.0,81,0.00,,,0.98,,2013-07-22 22:32:00,
2013-07-22 18:43:00,76.0,69.0,29.82,WSW,247,0.0,0.0,80,0.00,,,0.98,,2013-07-22 22:43:00,
2013-07-22 19:01:00,76.0,69.0,29.82,West,270,0.0,0.0,80,0.00,,,0.98,,2013-07-22 23:01:00,
2013-07-22 19:22:00,76.0,69.0,29.82,West,270,0.0,0.0,80,0.00,,,0.98,,2013-07-22 23:22:00,
2013-07-22 19:32:00,76.0,69.0,29.82,West,270,0.0,0.0,80,0.00,,,0.98,,2013-07-22 23:32:00,
2013-07-22 19:43:00,76.0,70.0,29.82,West,270,0.0,0.0,81,0.00,,,0.98,,2013-07-22 23:43:00,
2013-07-22 19:52:00,76.0,70.0,29.82,West,270,0.0,0.0,81,0.00,,,0.98,,2013-07-22 23:52:00,
2013-07-22 20:01:00,76.0,70.0,29.82,West,270,0.0,0.0,81,0.00,,,0.98,,2013-07-23 00:01:00,
2013-07-22 20:12:00,76.0,70.0,29.82,West,270,0.0,0.0,81,0.00,,,0.98,,2013-07-23 00:12:00,
2013-07-22 20:32:00,75.0,69.0,29.82,West,270,0.0,0.0,81,0.00,,,0.98,,2013-07-23 00:32:00,
2013-07-22 20:43:00,75.0,69.0,29.81,West,270,0.0,0.0,81,0.00,,,0.98,,2013-07-23 00:43:00,
2013-07-22 20:52:00,75.0,69.0,29.81,West,270,0.0,0.0,81,0.00,,,0.98,,2013-07-23 00:52:00,
2013-07-22 21:01:00,75.0,69.0,29.82,West,270,0.0,0.0,82,0.00,,,0.98,,2013-07-23 01:01:00,
2013-07-22 21:43:00,73.0,67.0,29.82,West,270,0.0,0.0,82,0.00,,,0.98,,2013-07-23 01:43:00,
2013-07-22 22:02:00,73.0,68.0,29.83,West,270,0.0,0.0,83,0.00,,,0.98,,2013-07-23 02:02:00,
2013-07-22 22:43:00,72.0,67.0,29.84,West,270,0.0,0.0,83,0.00,,,0.98,,2013-07-23 02:43:00,
2013-07-22 23:11:00,71.0,66.0,29.84,West,270,0.0,0.0,85,0.00,,,0.98,,2013-07-23 03:11:00,
2013-07-22 23:22:00,71.0,67.0,29.83,West,270,0.0,0.0,86,0.00,,,0.98,,2013-07-23 03:22:00,
2013-07-22 23:33:00,71.0,67.0,29.83,West,270,0.0,0.0,87,0.00,,,0.98,,2013-07-23 03:33:00,
2013-07-22 23:43:00,70.0,66.0,29.84,West,270,0.0,0.0,86,0.00,,,0.98,,2013-07-23 03:43:00,